OBJECT D (44342 NORAD) Tracking and Keplerian Element Data

This shows tracking and keplerian element data for the satellite.

Feedback or suggestion? Click here.




ElementValue
Catalog44342
NameOBJECT D
Epoch Orbit428
Epoch Day205.78852819
Epoch Year2019
RAAN19.1406
Inclination24.0013
Eccentricity0.001364
Argument of Perigee157.447
Mean Anonmoly202.6641
Mean Motion14.53192286
Decay Rate1.88E-06
L11 44342U 19036D 19205.78852819 .00000188 00000-0 -57241-5 0 9993
L22 44342 24.0013 19.1406 0013640 157.4470 202.6641 14.53192286 4288

Live tracking and technical data element details for OBJECT D (NORAD 44342). OBJECT D can be tracked NOW for your location showing map with azimuth and elevation plus other details from your city location.

Track the satellite on the map from your city or location and see movement details for azimuth, elevation, latitude, longitude, range, height, and movement on the map or in text.







IsCatalogInMostPopularTable: catalog: 44342, numindb: 9
Update: records affected: 1



GetName: 44342 OBJECT D

Hit Count: updated at: Thu, 22 Aug 2019 17:09:51 GMT